Weather in Chkalovo

Kazakhstan     53˚37′30″N   70˚26′02″E
temp.,
°C
wind,
m/s
gust,
m/s
humid.,
%
clouds,
%
prec.,
mm/h
press.,
hPa
HPBL,
m
3 december, thu
thu300:00−18˚ese34940 0.0 104457
03:00−19˚ese34950 0.0 104352
06:00−20˚e34950 0.0 104364
09:00−20˚e359516 0.0 104188
12:00−18˚e469256 0.0 1041232
15:00−17˚e359399 0.0 1040226
18:00−19˚e349693 0.0 104064
21:00−20˚e339713 0.0 103939
4 december, fri
fri400:00−20˚e23977 0.0 103920
03:00−21˚ene22970 0.0 103820
06:00−21˚ene12971 0.0 103820
09:00−21˚ene11980 0.0 103820
12:00−18˚n009423 0.0 103829
15:00−17˚nw12930 0.0 103823
18:00−18˚nnw229312 0.0 103820
21:00−19˚nw229228 0.0 103920
5 december, sat
sat500:00−19˚wnw229214 0.0 103920
03:00−19˚nw229343 0.0 103920
06:00−19˚nnw129462 0.0 103920
09:00−20˚ne01960 0.0 104020
12:00−18˚ne11930 0.0 104130
15:00−17˚ene11930 0.0 104120
18:00−19˚e11940 0.0 104120
21:00−20˚ese00940 0.0 104220
6 december, sun
sun600:00−20˚sse01920 0.0 104220
03:00−20˚sse00910 0.0 104320
06:00−19˚ssw00900 0.0 104220
09:00−19˚s11890 0.0 104320
12:00−17˚sse11882 0.0 104320
15:00−15˚sse118813 0.0 104220
18:00−17˚se129020 0.0 104120
21:00−16˚se1290100 0.0 104120
7 december, mon
mon700:00−16˚sse1189100 0.0 104020
03:00−16˚sw1289100 0.0 103820
06:00−16˚wsw229095 0.0 103720
09:00−16˚wsw339193 0.0 103629
12:00−15˚wsw349159 0.0 1035104
15:00−15˚wsw34910 0.0 103494
18:00−17˚wsw34900 0.0 103339
21:00−17˚wsw44900 0.0 103369